KM6ZMV Weather Reports


Display with metric or nautical units.
time (UTC)temp
F
wind
direction
speed
MPH
gust
MPH
rain 1hr
in
rain 24hr
in
rain mn
in
humidity
%
barometer
mb
20260503190507 80 9 2.0 9.0 0.00 0.00 0.00 44 1009.8
20260503190012 80 360 3.0 9.0 0.00 0.00 0.00 44 1009.8
20260503185503 79 9 1.0 6.0 0.00 0.00 0.00 45 1009.8
20260503185003 78 346 2.0 8.0 0.00 0.00 0.00 47 1009.9
20260503184517 78 5 2.0 8.0 0.00 0.00 0.00 47 1010.0
20260503184007 78 301 5.0 8.0 0.00 0.00 0.00 47 1010.0
20260503183507 77 286 3.0 7.0 0.00 0.00 0.00 47 1010.0
20260503183025 77 315 0.0 8.0 0.00 0.00 0.00 48 1010.1
20260503182513 77 9 4.0 8.0 0.00 0.00 0.00 47 1010.2
20260503182012 77 269 2.0 8.0 0.00 0.00 0.00 49 1010.1
20260503181528 76 343 1.0 8.0 0.00 0.00 0.00 50 1010.2
20260503181003 75 335 3.0 7.0 0.00 0.00 0.00 51 1010.3
20260503180505 75 352 1.0 8.0 0.00 0.00 0.00 52 1010.4
20260503180022 75 352 4.0 8.0 0.00 0.00 0.00 52 1010.5
20260503175504 74 67 3.0 6.0 0.00 0.00 0.00 52 1010.6
20260503175005 74 327 2.0 7.0 0.00 0.00 0.00 53 1010.7
20260503174516 73 335 3.0 9.0 0.00 0.00 0.00 53 1010.6
20260503174010 73 9 4.0 9.0 0.00 0.00 0.00 54 1010.7
20260503173507 72 321 2.0 6.0 0.00 0.00 0.00 56 1010.7
20260503173036 71 24 2.0 8.0 0.00 0.00 0.00 56 1010.9
20260503172509 71 9 2.0 9.0 0.00 0.00 0.00 58 1010.9
20260503172010 70 352 4.0 9.0 0.00 0.00 0.00 59 1010.9
20260503171533 70 360 6.0 9.0 0.00 0.00 0.00 59 1011.0
20260503171006 70 342 4.0 9.0 0.00 0.00 0.00 61 1010.9
20260503170511 70 330 2.0 9.0 0.00 0.00 0.00 61 1010.9
20260503151007 60 19 1.0 3.0 0.00 0.00 0.00 83 1011.5
20260503150507 59 19 2.0 2.0 0.00 0.00 0.00 85 1011.5
20260503131007 52 9 0.0 2.0 0.00 0.00 0.00 92 1011.0
20260503130507 52 9 1.0 2.0 0.00 0.00 0.00 92 1011.0
20260503110503 54 5 2.0 2.0 0.00 0.00 0.00 90 1011.3
20260503090504 56 183 0.0 2.0 0.00 0.00 0.00 88 1011.5
20260503081518 57 57 0.0 2.0 0.00 0.00 0.00 87 1011.6
20260503081003 56 57 0.0 2.0 0.00 0.00 0.00 87 1011.4
20260503080503 57 77 0.0 2.0 0.00 0.00 0.00 86 1011.4
20260503072507 58 48 0.0 2.0 0.00 0.00 0.00 85 1011.6
20260503072004 58 48 0.0 2.0 0.00 0.00 0.00 85 1011.5
20260503071505 58 48 0.0 2.0 0.00 0.00 0.00 85 1011.6
20260503071004 58 91 0.0 2.0 0.00 0.00 0.00 84 1011.5
20260503070503 58 99 0.0 2.0 0.00 0.00 0.00 84 1011.6
20260503055002 61 168 0.0 2.0 0.00 0.00 0.00 79 1011.6
20260503054517 61 137 0.0 2.0 0.00 0.00 0.00 78 1011.5
20260503054004 62 9 0.0 2.0 0.00 0.00 0.00 77 1011.4
20260503053504 62 9 0.0 2.0 0.00 0.00 0.00 77 1011.4
20260503053017 62 5 0.0 2.0 0.00 0.00 0.00 76 1011.5
20260503052505 63 12 0.0 3.0 0.00 0.00 0.00 75 1011.5
20260503052004 63 19 0.0 5.0 0.00 0.00 0.00 75 1011.5
20260503051521 63 325 2.0 5.0 0.00 0.00 0.00 75 1011.4
20260503051007 63 18 3.0 4.0 0.00 0.00 0.00 75 1011.6
20260503050503 63 327 1.0 4.0 0.00 0.00 0.00 75 1011.6
20260503050019 63 352 2.0 4.0 0.00 0.00 0.00 74 1011.8
20260503045506 63 315 0.0 2.0 0.00 0.00 0.00 74 1012.0
20260503045004 63 315 0.0 3.0 0.00 0.00 0.00 74 1011.9
20260503044522 63 26 0.0 3.0 0.00 0.00 0.00 74 1012.0
20260503044006 63 88 1.0 3.0 0.00 0.00 0.00 75 1012.0
20260503043506 63 79 2.0 3.0 0.00 0.00 0.00 75 1011.9
20260503043016 63 65 0.0 2.0 0.00 0.00 0.00 74 1011.9
20260503042504 63 90 0.0 2.0 0.00 0.00 0.00 75 1011.7
20260503042004 63 352 1.0 2.0 0.00 0.00 0.00 73 1011.6
20260503041518 63 338 0.0 2.0 0.00 0.00 0.00 73 1011.6
20260503041004 64 303 0.0 2.0 0.00 0.00 0.00 73 1011.6
20260503040506 64 205 0.0 2.0 0.00 0.00 0.00 72 1011.6
20260503040027 64 121 0.0 2.0 0.00 0.00 0.00 72 1011.6
20260503035506 64 121 0.0 2.0 0.00 0.00 0.00 71 1011.6
20260503035004 64 134 0.0 2.0 0.00 0.00 0.00 71 1011.5
20260503034518 64 82 0.0 2.0 0.00 0.00 0.00 71 1011.5
20260503034005 65 106 0.0 2.0 0.00 0.00 0.00 70 1011.5
20260503033504 65 151 0.0 2.0 0.00 0.00 0.00 71 1011.4
20260503033015 65 39 1.0 2.0 0.00 0.00 0.00 70 1011.3
20260503032507 65 104 1.0 2.0 0.00 0.00 0.00 70 1011.3
20260503032008 65 90 1.0 2.0 0.00 0.00 0.00 70 1011.3
20260503031517 65 171 0.0 2.0 0.00 0.00 0.00 69 1011.2
20260503031007 65 209 0.0 3.0 0.00 0.00 0.00 69 1011.3
20260503030505 65 192 1.0 5.0 0.00 0.00 0.00 69 1011.2
20260503030024 65 211 2.0 5.0 0.00 0.00 0.00 69 1011.2
20260503025505 65 196 2.0 8.0 0.00 0.00 0.00 69 1011.3
20260503025005 65 192 2.0 10.0 0.00 0.00 0.00 68 1011.3
20260503024516 66 255 2.0 12.0 0.00 0.00 0.00 68 1011.3
20260503024006 66 195 6.0 12.0 0.00 0.00 0.00 68 1011.3
20260503023510 66 219 4.0 15.0 0.00 0.00 0.00 67 1011.3
20260503023033 67 211 4.0 18.0 0.00 0.00 0.00 66 1011.4
20260503022503 67 181 3.0 18.0 0.00 0.00 0.00 66 1011.3
20260503022004 68 173 8.0 15.0 0.00 0.00 0.00 64 1011.3
20260503021517 69 172 3.0 12.0 0.00 0.00 0.00 62 1011.2
20260503021004 69 211 5.0 12.0 0.00 0.00 0.00 62 1011.2
20260503020504 70 202 5.0 11.0 0.00 0.00 0.00 61 1011.1
20260503020020 70 234 2.0 6.0 0.00 0.00 0.00 61 1010.8
20260503015508 70 215 2.0 7.0 0.00 0.00 0.00 60 1010.6
20260503015007 71 240 2.0 9.0 0.00 0.00 0.00 59 1010.5
20260503014517 71 207 3.0 9.0 0.00 0.00 0.00 58 1010.4
20260503014006 72 182 2.0 5.0 0.00 0.00 0.00 56 1010.3
20260503013506 73 243 1.0 2.0 0.00 0.00 0.00 55 1010.4
20260503013022 73 245 0.0 3.0 0.00 0.00 0.00 55 1010.3
20260503012506 73 194 0.0 3.0 0.00 0.00 0.00 55 1010.3
20260503012004 72 227 0.0 2.0 0.00 0.00 0.00 55 1010.3
20260503011517 72 225 1.0 2.0 0.00 0.00 0.00 54 1010.2
20260503011006 73 296 0.0 3.0 0.00 0.00 0.00 55 1010.1
20260503010509 73 254 2.0 3.0 0.00 0.00 0.00 54 1010.2
20260503010030 73 295 0.0 2.0 0.00 0.00 0.00 54 1010.2
20260503005507 73 293 0.0 3.0 0.00 0.00 0.00 55 1010.2
20260503005012 73 296 1.0 4.0 0.00 0.00 0.00 54 1010.2
20260503004521 74 360 2.0 5.0 0.00 0.00 0.00 53 1010.2
20260503004007 73 340 2.0 5.0 0.00 0.00 0.00 53 1010.3
20260503003508 74 309 0.0 4.0 0.00 0.00 0.00 52 1010.3
20260503003019 74 308 1.0 4.0 0.00 0.00 0.00 52 1010.2
20260503002509 73 352 0.0 4.0 0.00 0.00 0.00 54 1010.2
20260503002009 74 307 0.0 5.0 0.00 0.00 0.00 53 1010.3
20260503001522 73 283 2.0 5.0 0.00 0.00 0.00 52 1010.3
20260503001008 73 9 2.0 5.0 0.00 0.00 0.00 54 1010.3
20260503000507 71 327 1.0 6.0 0.00 0.00 0.00 55 1010.4
20260503000025 72 306 3.0 6.0 0.00 0.00 0.00 54 1010.4
20260502235507 72 313 0.0 5.0 0.00 0.00 0.00 55 1010.4
20260502235007 71 305 2.0 7.0 0.00 0.00 0.00 54 1010.5
20260502234520 71 352 2.0 7.0 0.00 0.00 0.00 56 1010.5
20260502234008 71 299 2.0 7.0 0.00 0.00 0.00 55 1010.7
20260502233509 71 294 2.0 7.0 0.00 0.00 0.00 55 1010.8
20260502233022 71 268 2.0 7.0 0.00 0.00 0.00 54 1010.9
20260502232507 71 295 1.0 4.0 0.00 0.00 0.00 56 1011.0
20260502232005 71 314 1.0 8.0 0.00 0.00 0.00 55 1010.9
20260502231523 71 302 2.0 9.0 0.00 0.00 0.00 55 1010.9
20260502231010 70 350 3.0 9.0 0.00 0.00 0.00 56 1011.1
20260502230507 69 11 1.0 8.0 0.00 0.00 0.00 56 1011.1
20260502230018 71 281 3.0 8.0 0.00 0.00 0.00 55 1011.1
20260502225506 70 254 2.0 5.0 0.00 0.00 0.00 57 1011.2
20260502225007 71 352 1.0 7.0 0.00 0.00 0.00 55 1011.3
20260502224523 70 314 3.0 7.0 0.00 0.00 0.00 56 1011.3
20260502224008 70 23 1.0 6.0 0.00 0.00 0.00 57 1011.3
20260502223508 70 286 1.0 6.0 0.00 0.00 0.00 55 1011.5
20260502223022 70 341 2.0 6.0 0.00 0.00 0.00 55 1011.6
20260502222505 69 230 2.0 9.0 0.00 0.00 0.00 58 1011.6
20260502222008 69 336 2.0 9.0 0.00 0.00 0.00 56 1011.7
20260502221523 69 322 4.0 9.0 0.00 0.00 0.00 57 1011.9
20260502221005 68 9 2.0 9.0 0.00 0.00 0.00 59 1012.0
20260502220506 67 284 2.0 5.0 0.00 0.00 0.00 60 1012.0
20260502220023 68 294 3.0 8.0 0.00 0.00 0.00 59 1012.3
20260502215508 68 298 2.0 8.0 0.00 0.00 0.00 60 1012.2
20260502215007 68 36 1.0 6.0 0.00 0.00 0.00 58 1012.2
20260502214522 68 291 2.0 8.0 0.00 0.00 0.00 58 1012.3
20260502214007 68 38 2.0 8.0 0.00 0.00 0.00 58 1012.4
20260502213507 68 52 2.0 9.0 0.00 0.00 0.00 60 1012.5
20260502213030 68 286 4.0 9.0 0.00 0.00 0.00 58 1012.6
20260502212508 68 25 2.0 8.0 0.00 0.00 0.00 58 1012.7
20260502212007 68 28 0.0 8.0 0.00 0.00 0.00 60 1012.7
20260502211523 67 10 3.0 8.0 0.00 0.00 0.00 61 1012.7
20260502211007 66 334 1.0 8.0 0.00 0.00 0.00 63 1012.7
20260502210507 65 292 2.0 9.0 0.00 0.00 0.00 62 1012.7
20260502210024 66 352 3.0 9.0 0.00 0.00 0.00 61 1012.8
20260502205512 65 33 2.0 7.0 0.00 0.00 0.00 63 1013.1
20260502205010 64 360 1.0 4.0 0.00 0.00 0.00 65 1013.3
20260502204527 62 191 1.0 5.0 0.00 0.00 0.00 67 1013.4
20260502204009 63 238 1.0 8.0 0.00 0.00 0.00 66 1013.5
20260502203508 63 314 4.0 8.0 0.00 0.00 0.00 66 1013.5
20260502203024 63 52 3.0 8.0 0.00 0.00 0.00 65 1013.5
20260502202507 62 9 1.0 7.0 0.00 0.00 0.00 68 1013.5
20260502202008 62 223 3.0 7.0 0.00 0.00 0.00 68 1013.5
20260502201524 61 204 1.0 4.0 0.00 0.00 0.00 68 1013.6
20260502201011 62 242 1.0 8.0 0.00 0.00 0.00 68 1013.7
20260502200510 61 203 2.0 8.0 0.00 0.00 0.00 67 1013.7
20260502200030 61 292 3.0 8.0 0.00 0.00 0.00 68 1013.7
20260502195509 61 342 3.0 8.0 0.00 0.00 0.00 67 1013.8
20260502195009 62 9 2.0 8.0 0.00 0.00 0.00 68 1013.8
20260502194524 61 277 1.0 8.0 0.00 0.00 0.00 70 1013.8
20260502194009 61 291 3.0 8.0 0.00 0.00 0.00 69 1014.0
20260502193509 60 242 1.0 11.0 0.00 0.00 0.00 70 1013.9
20260502193022 59 295 1.0 11.0 0.00 0.00 0.00 69 1014.0
20260502192510 60 105 2.0 7.0 0.00 0.00 0.00 69 1014.1
20260502192013 59 276 2.0 7.0 0.00 0.00 0.00 71 1014.0
20260502191525 59 306 2.0 6.0 0.00 0.00 0.00 71 1014.3
20260502191009 59 297 1.0 6.0 0.00 0.00 0.00 72 1014.3